Regional Weather Roundup
Issued by NWS

Home | Current Version | Previous Version | Text Only | Print | Product List | Glossary On
Versions: 1 2 3 4 5 6 7 8 9 10 11 12 13 14 15 16 17 18 19 20 21 22 23 24 25 26 27 28 29 30 31 32 33 34 35 36 37 38 39 40 41 42 43 44 45 46 47 48 49 50
000
ASUS43 KMKX 290211
RWRWI

WISCONSIN REGIONAL WEATHER ROUNDUP
NATIONAL WEATHER SERVICE MILWAUKEE/SULLIVAN WI
900 PM CDT SUN AUG 28 2016

NOTE: "FAIR" INDICATES FEW OR NO CLOUDS BELOW 12,000 FEET WITH NO
SIGNIFICANT WEATHER AND/OR OBSTRUCTIONS TO VISIBILITY.

WIZ001-002-006>008-014>016-023>028-290300-
NORTHWEST WISCONSIN

CITY           SKY/WX    TMP DP  RH WIND       PRES   REMARKS
SUPERIOR ARPT  CLOUDY    65  64  96 NE7       30.16R
ASHLAND        CLEAR     62  61  96 N5        30.18R
HAYWARD        CLEAR     66  64  93 CALM      30.17S
SIREN          CLEAR     71  65  80 SE7       30.15R
CUMBERLAND     CLEAR     68  63  83 SE5       30.17R
RICE LAKE      CLEAR     70  65  84 E5        30.18R
CHETEK         NOT AVBL
LADYSMITH      PTCLDY    69  65  85 SE3       30.21R
EAU CLAIRE     CLEAR     72  67  84 SE6       30.16R
MENOMONIE      CLEAR     70  67  91 E5        30.16R
NEW RICHMOND   CLEAR     70  68  92 SE5       30.15R
OSCEOLA        CLEAR     71  71 100 SE7       30.16R
$$

WIZ003>005-009-010-017-018-290300-
NORTH CENTRAL WISCONSIN

CITY           SKY/WX    TMP DP  RH WIND       PRES   REMARKS
MANITOWISH WTR NOT AVBL
ARBOR VITAE    CLEAR     64  62  92 CALM      30.23R
WOODRUFF       CLEAR     64  62  92 CALM      30.23R
RHINELANDER    CLEAR     64  63  96 CALM      30.24R
EAGLE RIVER    CLEAR     61  61 100 CALM      30.23R FOG
LAND O LAKES   CLEAR     60  59  97 CALM      30.24R
PHILLIPS       CLEAR     65  64  97 CALM      30.21R
TOMAHAWK       CLEAR     63  61  92 CALM      30.23R
MEDFORD        CLEAR     66  66 100 SE3       30.22R
MERRILL        CLEAR     64  64  97 CALM      30.23R
$$

WIZ029-030-035-036-043>047-290300-
CENTRAL WISCONSIN

CITY           SKY/WX    TMP DP  RH WIND       PRES   REMARKS
WAUSAU         CLEAR     69  64  84 E3        30.21R
MOSINEE        NOT AVBL
MARSHFIELD     CLEAR     69  64  84 S5        30.21R
STEVENS POINT  CLEAR     68  64  89 CALM      30.22R
WAUPACA        CLEAR     70  68  94 CALM      30.21S
WAUTOMA        CLEAR     67  65  93 CALM      30.21
WISC RAPIDS    CLEAR     70  67  90 S3        30.22R
CAMP DOUGLAS   CLEAR     65  65  97 NE3       30.19R FOG
$$

WIZ011>013-019>022-031-037>040-048>050-290300-
NORTHEAST WISCONSIN

CITY           SKY/WX    TMP DP  RH WIND       PRES   REMARKS
ANTIGO         CLEAR     63  62  95 CALM      30.25R
SHAWANO        PTCLDY    69  65  89 CALM      30.22R
OCONTO         NOT AVBL
STURGEON BAY   CLEAR     64  62  93 S5        30.24R
GREEN BAY      CLEAR     67  67 100 SE6       30.22R
MANITOWOC      CLEAR     64  63  94 CALM      30.23R FOG
APPLETON       PTCLDY    70  63  78 CALM      30.20R
CLINTONVILLE   CLEAR     66  64  94 CALM      30.21R
OSHKOSH        CLEAR     70  66  87 CALM      30.21R
$$

WIZ032>034-041-042-053>061-290300-
SOUTHWEST WISCONSIN

CITY           SKY/WX    TMP DP  RH WIND       PRES   REMARKS
LA CROSSE      CLEAR     75  70  84 SE5       30.16R
SPARTA         CLEAR     67  66  96 CALM      30.19S
VIROQUA        CLEAR     69  69 100 E6        30.20R
BOSCOBEL       CLOUDY    74  71  91 CALM      30.17S
PRAIRIE DU CHI MOCLDY    76  71  85 CALM      30.16R
PLATTEVILLE    CLOUDY    73  71  92 S5        30.19R
$$

WIZ056-057-062-063-064-067-068-290300-
SOUTH CENTRAL WISCONSIN

CITY           SKY/WX    TMP DP  RH WIND       PRES   REMARKS
REEDSBURG      NOT AVBL
BARABOO/DELLS  CLEAR     68  65  91 CALM      30.20R
LONE ROCK      CLOUDY    71  68  90 E3        30.18S
MINERAL POINT  PTCLDY    75  72  88 CALM      30.20R
MADISON        CLOUDY    72  68  87 CALM      30.19R
MIDDLETON      CLOUDY    70  70 100 CALM      30.21R
WATERTOWN      MOCLDY    72  71  96 CALM      30.21R
MONROE         CLOUDY    73  68  83 S6        30.20R
JANESVILLE     MOCLDY    75  73  94 E7        30.18R
$$

WIZ051-052-058>065-066-070>072-290300-
SOUTHEAST WISCONSIN

CITY           SKY/WX    TMP DP  RH WIND       PRES   REMARKS
MILWAUKEE      PTCLDY    70  66  87 CALM      30.21R
WAUKESHA       CLEAR     70  64  83 SE5       30.22R
MILWAUKEE/TIMM CLEAR     70  63  78 CALM      30.22R
RACINE         PTCLDY    70  67  90 CALM      30.22R
BURLINGTON     PTCLDY    67  66  95 CALM      30.21R
KENOSHA        MOCLDY    68  66  93 NE5       30.21R
FOND DU LAC    CLEAR     69  66  90 SE6       30.21R
SHEBOYGAN      PTCLDY    63  61  93 CALM      30.22R FOG
WEST BEND      CLEAR     64  63  94 CALM      30.22R
JUNEAU         CLEAR     70  67  90 E3        30.23R
$$

LSZ147-162-290300-
LAKE SUPERIOR

STATION/POSITION TIME  TEMP    WIND        PRES    WAVE
                       AIR SEA DIR/SP/G            HT/PER
                 (UTC) (F)     (DEG/KT/KT) (MB)    (FT/S)
W MID LAKE BUOY  0150   67 68  110/ 10/ 10 1021.5R   0
DEVILS ISLAND    0200   66     110/ 10/ 11 1021.8R
PORT WING        0100   67      80/  2/  5 1020.7S
SAXON HARBOR     0100   67     200/  2/  2 1021.0S
$$

LMZ867-665-643>646-290300-
LAKE MICHIGAN

STATION/POSITION TIME  TEMP    WIND        PRES    WAVE
                       AIR SEA DIR/SP/G            HT/PER
                 (UTC) (F)     (DEG/KT/KT) (MB)    (FT/S)
CHAMBERS ISLAND  0100   69     150/  3/  4 1022.4R
S GREEN BAY BUOY 0100   71 73  150/ 12/ 14 1022.2
N MID LAKE BUOY  0150   71 72  120/  2/  2 1023.1R   0
NORTHPORT PIER   0100   69     190/  4/  6 1022.7R
KEWAUNEE LAKESHO 0100   64                 1022.7R
SHEBOYGAN LAKESH 0200   68        CALM     1022.9R
PORT WASHINGTON  0140   68     360/  2/  3 1023.7R
ATWATER BUOY     0100   68      10/  4/  6   N/A
MILWAUKEE LAKESH 0110   69      CALM  /  1   N/A
S MID LAKE BUOY  0150   73 75   60/  6/  8 1022.2R   1/ 3
KENOSHA   LAKESH 0200   70      20/  3/  5 1022.4R
$$

TC  - TEMPERATURE IN CELSIUS
VSB - VISIBILITY IN STATUTE MILES
WCI - WIND CHILL INDEX
HX  - HEAT INDEX





USA.gov is the U.S. government's official web portal to all federal, state and local government web resources and services.